Regional Weather Roundup
Issued by NWS

Home | Current Version | Previous Version | Graphics & Text | Print | Product List | Glossary Off
Versions: 1 2 3 4 5 6 7 8 9 10 11 12 13 14 15 16 17 18 19 20 21 22 23 24 25 26 27 28 29 30 31 32 33 34 35 36 37 38 39 40 41 42 43 44 45 46 47 48 49 50

000
ASUS43 KTOP 010508
RWRKS

WEATHER ROUNDUP FOR KANSAS
NATIONAL WEATHER SERVICE GOODLAND KS
1100 PM CST SAT FEB 28 2015

NOTE:  "FAIR" INDICATES FEW OR NO CLOUDS BELOW 12,000 FEET WITH NO
SIGNIFICANT WEATHER AND/OR OBSTRUCTIONS TO VISIBILITY.

KSZ001>006-013>018-027>032-041>047-010600-
NORTHWEST KANSAS

CITY           SKY/WX    TMP DP  RH WIND       PRES   REMARKS
GOODLAND       CLOUDY    18  15  88 S7        30.14R
HAYS           CLOUDY    18   7  62 E3        30.27S
HILL CITY      CLOUDY    20  15  81 CALM      30.27R
RUSSELL        CLOUDY    19  16  88 SE5       30.28S
$$

KSZ061>065-074>080-084>089-010600-
SOUTHWEST KANSAS

CITY           SKY/WX    TMP DP  RH WIND       PRES   REMARKS
DODGE CITY     CLOUDY    19  15  84 SE8       30.23R FOG
ELKHART          N/A     21  15  78 SE14        N/A  WCI   8
GARDEN CITY    CLOUDY    19  16  88 SE9       30.18F
GREAT BEND     CLOUDY    19  12  73 S5        30.30S
LIBERAL        CLOUDY    23  18  80 SE12      30.18F WCI  12
PRATT          CLOUDY    19  18  93 CALM      30.29F
$$

KSZ066>073-081>083-090>101-010600-
SOUTHEAST KANSAS

CITY           SKY/WX    TMP DP  RH WIND       PRES   REMARKS
CHANUTE        CLOUDY    24  22  91 CALM      30.36S
COFFEYVILLE    CLOUDY    26  24  92 CALM      30.36F FOG
HUTCHINSON     CLOUDY    20  16  84 CALM      30.33S
MEDICINE LODGE   N/A     20  19  96 SE3       30.31S
NEWTON         CLOUDY    19  14  79 E3        30.33F
PARSONS        CLOUDY    26  23  88 CALM      30.37S
WICHITA INTL   CLOUDY    23  18  81 SE3       30.34R
WICHITA JABRA  CLOUDY    21  18  88 SE3       30.34S
WICHITA MCCONL CLOUDY    21  19  93 E3        30.34S
WINFIELD       CLOUDY    24  21  88 CALM      30.36R
$$

KSZ007>012-019>026-033>040-048>060-102>105-010600-
NORTHEAST KANSAS

CITY           SKY/WX    TMP DP  RH WIND       PRES   REMARKS
CONCORDIA      CLOUDY    21  17  84 CALM      30.33S
EMPORIA        CLOUDY    21  19  92 SE3       30.35R
LAWRENCE       LGT SNOW  22  19  89 CALM      30.38F FOG
MANHATTAN      CLOUDY    23  18  81 CALM      30.36S
MARYSVILLE     CLOUDY    19  18  93 CALM      30.35S
OLATHE IND     LGT SNOW  21  19  92 E5        30.36F FOG
OLATHE EXE     LGT SNOW  22  20  92 CALM      30.36S FOG
SALINA         CLOUDY    22  16  78 SE3       30.36R
TOPEKA BILLARD CLOUDY    24  18  77 CALM      30.38F
TOPEKA FORBES  FLURRIES  23  18  81 CALM      30.36F
$$


USA.gov is the U.S. government's official web portal to all federal, state and local government web resources and services.